LZ3VG-2 Weather Reports


Display with metric or nautical units.
time (UTC)temp
F
wind
direction
speed
MPH
gust
MPH
rain 1hr
in
rain 24hr
in
rain mn
in
humidity
%
barometer
mb
20260505052530 50 193 13.0 16.0 0.00 0.00 0.00 68 1015.7
20260505051527 49 195 15.0 18.0 0.00 0.00 0.00 68 1015.7
20260505050525 49 190 12.0 16.0 0.00 0.00 0.00 68 1015.6
20260505041550 45 196 14.0 20.0 0.00 0.00 0.00 69 1015.5
20260505040527 45 195 14.0 19.0 0.00 0.00 0.00 71 1015.2
20260505035524 44 195 14.0 20.0 0.00 0.00 0.00 74 1015.2
20260505034521 44 190 11.0 15.0 0.00 0.00 0.00 75 1015.3
20260505033518 45 183 11.0 16.0 0.00 0.00 0.00 73 1015.3
20260505032536 45 177 10.0 14.0 0.00 0.00 0.00 69 1015.1
20260505031533 45 187 10.0 14.0 0.00 0.00 0.00 69 1014.9
20260505030530 44 189 10.0 15.0 0.00 0.00 0.00 71 1014.9
20260505025526 43 191 11.0 15.0 0.00 0.00 0.00 76 1014.8
20260505024524 41 190 12.0 16.0 0.00 0.00 0.00 82 1014.9
20260505023521 41 192 13.0 20.0 0.00 0.00 0.00 81 1014.8
20260505022518 41 193 12.0 16.0 0.00 0.00 0.00 79 1014.8
20260505021555 42 197 15.0 21.0 0.00 0.00 0.00 77 1014.9
20260505020532 41 190 13.0 17.0 0.00 0.00 0.00 80 1014.8
20260505015529 41 193 14.0 19.0 0.00 0.00 0.00 82 1014.9
20260505014526 42 198 14.0 20.0 0.00 0.00 0.00 79 1014.9
20260505013603 42 194 14.0 19.0 0.00 0.00 0.00 80 1015.0
20260505012520 42 190 13.0 17.0 0.00 0.00 0.00 80 1015.0
20260505011517 42 187 10.0 14.0 0.00 0.00 0.00 79 1015.0
20260505010535 43 187 12.0 18.0 0.00 0.00 0.00 78 1015.0
20260505005531 43 192 13.0 18.0 0.00 0.00 0.00 76 1015.0
20260505004529 43 190 13.0 17.0 0.00 0.00 0.00 75 1015.0
20260505003526 43 191 14.0 19.0 0.00 0.00 0.00 76 1015.1
20260505002522 43 188 12.0 15.0 0.00 0.00 0.00 76 1015.1
20260505001540 43 183 11.0 14.0 0.00 0.00 0.00 74 1015.1
20260505000517 42 188 11.0 14.0 0.00 0.00 0.00 76 1015.2
20260504235534 42 188 10.0 14.0 0.00 0.00 0.00 77 1015.1
20260504234531 42 193 11.0 16.0 0.00 0.00 0.00 77 1015.3
20260504233549 43 188 11.0 13.0 0.00 0.00 0.00 76 1015.2
20260504232525 44 188 12.0 13.0 0.00 0.00 0.00 73 1015.3
20260504231522 45 185 11.0 12.0 0.00 0.00 0.00 71 1015.3
20260504230520 45 183 11.0 13.0 0.00 0.00 0.00 72 1015.6
20260504225516 45 188 11.0 13.0 0.00 0.00 0.00 71 1015.6
20260504224533 46 186 11.0 13.0 0.00 0.00 0.00 69 1015.6
20260504223530 48 183 11.0 14.0 0.00 0.00 0.00 68 1015.8
20260504222527 48 180 10.0 12.0 0.00 0.00 0.00 66 1015.7
20260504221544 48 187 10.0 12.0 0.00 0.00 0.00 63 1015.9
20260504220521 48 182 9.0 11.0 0.00 0.00 0.00 63 1015.9
20260504215519 49 186 10.0 13.0 0.00 0.00 0.00 63 1016.0
20260504214516 49 198 10.0 15.0 0.00 0.00 0.00 62 1015.9
20260504213533 48 197 11.0 14.0 0.00 0.00 0.00 64 1015.9
20260504212550 49 205 11.0 15.0 0.00 0.00 0.00 61 1016.0
20260504211627 49 196 9.0 12.0 0.00 0.00 0.00 63 1016.0
20260504210524 48 191 9.0 13.0 0.00 0.00 0.00 63 1015.9
20260504205521 49 192 9.0 13.0 0.00 0.00 0.00 62 1015.8
20260504204518 50 195 11.0 15.0 0.00 0.00 0.00 56 1015.9
20260504203535 51 180 9.0 10.0 0.00 0.00 0.00 53 1015.9
20260504202532 52 183 10.0 11.0 0.00 0.00 0.00 51 1015.9
20260504201529 52 189 11.0 12.0 0.00 0.00 0.00 51 1016.0
20260504200546 52 190 11.0 13.0 0.00 0.00 0.00 50 1015.9
20260504195543 53 187 10.0 12.0 0.00 0.00 0.00 50 1015.9
20260504194520 53 189 11.0 13.0 0.00 0.00 0.00 49 1015.9
20260504193517 53 189 11.0 13.0 0.00 0.00 0.00 51 1015.9
20260504192534 53 189 11.0 13.0 0.00 0.00 0.00 51 1015.9
20260504191530 53 196 12.0 15.0 0.00 0.00 0.00 50 1016.0
20260504190528 53 194 13.0 14.0 0.00 0.00 0.00 51 1015.9
20260504185524 54 190 11.0 13.0 0.00 0.00 0.00 52 1016.0
20260504184542 54 183 12.0 13.0 0.00 0.00 0.00 49 1015.9
20260504183518 54 181 11.0 13.0 0.00 0.00 0.00 47 1016.0
20260504182535 55 183 12.0 13.0 0.00 0.00 0.00 47 1016.0
20260504181533 54 182 10.0 12.0 0.00 0.00 0.00 47 1015.7
20260504180530 55 179 10.0 11.0 0.00 0.00 0.00 47 1015.9
20260504175527 55 172 10.0 12.0 0.00 0.00 0.00 48 1015.8
20260504174523 55 180 10.0 11.0 0.00 0.00 0.00 49 1015.7
20260504173521 55 181 10.0 12.0 0.00 0.00 0.00 49 1015.7
20260504172517 55 174 10.0 12.0 0.00 0.00 0.00 48 1015.6
20260504171555 56 165 12.0 15.0 0.00 0.00 0.00 47 1015.5
20260504170532 56 157 12.0 16.0 0.00 0.00 0.00 45 1015.4
20260504150535 59 141 13.0 24.0 0.00 0.00 0.00 46 1014.6
20260504140517 60 148 13.0 21.0 0.00 0.00 0.00 44 1014.5
20260504130519 61 159 9.0 15.0 0.00 0.00 0.00 45 1014.1
20260504110544 64 204 10.0 16.0 0.00 0.00 0.00 38 1014.8
20260504100546 63 238 5.0 11.0 0.00 0.00 0.00 36 1015.1
20260504081531 60 231 8.0 19.0 0.00 0.00 0.00 42 1015.2
20260504080529 60 241 11.0 20.0 0.00 0.00 0.00 42 1015.3